Weather History for CYXL - January, 2013

Change the Weather History Date:

Friday, January 25, 2013

  Actual Average Record
Temperature  
Mean Temperature -8 °F -  
Max Temperature 3 °F 14 °F 30 °F (2001)
Min Temperature -20 °F -8 °F -29 °F (2004)
Degree Days  
Heating Degree Days 74    
Moisture  
Dew Point -9 °F    
Average Humidity 79    
Maximum Humidity 85    
Minimum Humidity 61    
Precipitation  
Precipitation 0.08 in 0.04 in - ()
Sea Level Pressure  
Sea Level Pressure 30.18 in    
Wind  
Wind Speed 4 mph ()    
Max Wind Speed 10 mph    
Max Gust Speed -    
Visibility 11.0 miles    
Events Snow    
Averages and records for this station are not official NWS values.
T = Trace of Precipitation, MM = Missing Value Source: Averaged Metar Reports

Daily Weather History Graph

Daily Weather History Graph

Search for Another Location

Airport or City:

Trip Planner

Search our weather history database for the weather conditions in past years. The results will help you decide how hot, cold, wet, or windy it might be!

Date:

Astronomy

Jan. 25, 2013 Rise Set
Actual Time 7:50 AM CST 4:50 PM CST
Civil Twilight 7:14 AM CST 5:26 PM CST
Nautical Twilight 6:35 AM CST 6:05 PM CST
Astronomical Twilight 5:56 AM CST 6:43 PM CST
Moon 3:48 PM CST (1/25) 6:31 AM CST (1/25)
Length of Visible Light 10h 11m
Length of Day
8h 59m
Waxing Gibbous, 98% of the Moon is Illuminated
Jan 25
Waxing Gibbous
Jan 26
Full
Feb 3
Last Quarter
Feb 10
New
Feb 17
First Quarter

Hourly Weather History & Observations

Time (CST) Temp. Windchill Dew Point Humidity Pressure Visibility Wind Dir Wind Speed Gust Speed Precip Events Conditions
12:00 AM -6 °F - -10 °F 71% 30.23 in 3 mi SE 5.8 mph - - Snow Light Snow
12:00 AM -5.8 °F -18.4 °F -11.2 °F 77% 30.23 in 3.0 mi SE 5.8 mph - N/A Snow Light Snow
1:00 AM -4.0 °F -12.4 °F -9.4 °F 78% 30.20 in 2.0 mi SE 3.5 mph - N/A Snow Light Snow
2:00 AM -4.0 °F -16.3 °F -9.4 °F 78% 30.15 in 2.0 mi SE 5.8 mph - N/A Snow Light Snow
3:00 AM -4.0 °F -14.6 °F -7.6 °F 85% 30.11 in 2.0 mi SSE 4.6 mph - N/A Snow Light Snow
4:00 AM -2.2 °F -10.4 °F -7.6 °F 78% 30.09 in 3.0 mi ESE 3.5 mph - N/A Snow Light Snow
5:00 AM -2.2 °F - -5.8 °F 85% 30.08 in 2.0 mi East 2.3 mph - N/A Snow Light Snow
6:00 AM -4 °F - -8 °F 75% 30.07 in 6 mi ENE 5.8 mph - - Snow Light Snow
6:00 AM -4.0 °F -16.3 °F -7.6 °F 85% 30.07 in 6.0 mi ENE 5.8 mph - N/A Snow Light Snow
7:00 AM -4.0 °F -16.3 °F -7.6 °F 85% 30.06 in 10.0 mi ENE 5.8 mph - N/A Snow Light Snow
8:00 AM -4.0 °F -16.3 °F -7.6 °F 85% 30.06 in 12.0 mi NE 5.8 mph - N/A Snow Light Snow
9:00 AM -2.2 °F -10.4 °F -7.6 °F 78% 30.08 in 15.0 mi NNE 3.5 mph - N/A Snow Light Snow
10:00 AM -0.4 °F - -5.8 °F 78% 30.09 in 15.0 mi NNE 2.3 mph - N/A Snow Light Snow
11:00 AM -2.2 °F -14.2 °F -5.8 °F 85% 30.12 in 15.0 mi North 5.8 mph - N/A   Partly Cloudy
12:00 PM 2 °F - -5 °F 61% 30.13 in 15 mi North 6.9 mph - -   Partly Cloudy
12:00 PM 3.2 °F -7.8 °F -4.0 °F 72% 30.13 in 15.0 mi North 5.8 mph - N/A   Scattered Clouds
1:00 PM 3.2 °F -9.1 °F -4.0 °F 72% 30.15 in 15.0 mi North 6.9 mph - N/A   Scattered Clouds
2:00 PM 3.2 °F -6.2 °F -4.0 °F 72% 30.15 in 15.0 mi NNW 4.6 mph - N/A   Mostly Cloudy
3:00 PM 3.2 °F -12.2 °F -4.0 °F 72% 30.18 in 15.0 mi NNW 10.4 mph - N/A   Mostly Cloudy
4:00 PM 3.2 °F -6.2 °F -4.0 °F 72% 30.20 in 15.0 mi North 4.6 mph - N/A   Mostly Cloudy
5:00 PM -0.4 °F -8.3 °F -4.0 °F 85% 30.23 in 15.0 mi NNE 3.5 mph - N/A   Scattered Clouds
6:00 PM -5 °F - -8 °F 79% 30.26 in 15 mi North 3.5 mph - -   Scattered Clouds
6:00 PM -4.0 °F -12.4 °F -7.6 °F 85% 30.26 in 15.0 mi North 3.5 mph - N/A   Partly Cloudy
6:54 PM - - - N/A% - 15.0 mi NNW 5.8 mph - N/A   Unknown
7:00 PM -4.0 °F -16.3 °F -7.6 °F 85% 30.29 in 15.0 mi NNW 5.8 mph - N/A Snow Light Snow
8:00 PM -11.2 °F -20.6 °F -16.6 °F 77% 30.29 in 12.0 mi NNE 3.5 mph - N/A   Partly Cloudy
9:00 PM -11.2 °F - -14.8 °F 84% 30.31 in 15.0 mi North 2.3 mph - N/A   Clear
10:00 PM -16.6 °F - -20.2 °F 84% 30.33 in 15.0 mi North 2.3 mph - N/A   Clear
11:00 PM -20.2 °F - -25.6 °F 76% 30.35 in 15.0 mi NNE 2.3 mph - N/A   Clear